Location: Bannatyne
(13.0833°N, 59.5333°W)
Time: 05:08:34
(UTC+00:00)

Vanguard 2 Rocket - Pass Details

Date: 28 January 2020
Orbit: 554 x 3326 km, 32.9° (Epoch: 07 April)

Event Time Altitude Azimuth Distance (km) Brightness Sun altitude
Rises 04:16:28 0° 226° (SW) 4,380 - -84.6°
Reaches altitude 10° 04:20:11 10° 220° (SW) 2,978 - -84.3°
Maximum altitude 04:26:30 44° 150° (SSE) 1,068 - -83.5°
Drops below altitude 10° 04:30:42 10° 77° (ENE) 1,992 - -82.9°
Sets 04:32:45 0° 70° (ENE) 2,788 - -82.6°
